CW5752 Weather Reports


Display with metric or nautical units.
time (UTC)temp
F
wind
direction
speed
MPH
gust
MPH
rain 1hr
in
rain 24hr
in
rain mn
in
humidity
%
barometer
mb
20260510230520 69 336 0.0 5.0 0.00 0.00 0.00 45 1017.9
20260510225520 70 357 2.0 7.0 0.00 0.00 0.00 43 1017.8
20260510224541 70 351 3.0 8.0 0.00 0.00 0.00 42 1017.8
20260510223521 71 327 1.0 8.0 0.00 0.00 0.00 43 1017.8
20260510222535 71 348 2.0 9.0 0.00 0.00 0.00 42 1017.7
20260510221520 71 323 3.0 8.0 0.00 0.00 0.00 43 1017.7
20260510220520 71 331 2.0 8.0 0.00 0.00 0.00 45 1017.8
20260510215601 70 319 1.0 5.0 0.00 0.00 0.00 44 1017.8
20260510214521 70 330 2.0 5.0 0.00 0.00 0.00 44 1017.9
20260510213520 72 323 2.0 5.0 0.00 0.00 0.00 44 1017.8
20260510212540 72 330 2.0 5.0 0.00 0.00 0.00 46 1017.7
20260510211515 72 324 3.0 6.0 0.00 0.00 0.00 46 1017.6
20260510210520 72 320 3.0 7.0 0.00 0.00 0.00 45 1017.7
20260510205520 74 331 1.0 6.0 0.00 0.00 0.00 46 1017.7
20260510204520 72 329 2.0 7.0 0.00 0.00 0.00 50 1017.6
20260510203520 73 312 1.0 6.0 0.00 0.00 0.00 47 1017.7
20260510202520 71 326 0.0 5.0 0.00 0.00 0.00 49 1017.8
20260510201516 70 328 0.0 4.0 0.00 0.00 0.00 50 1017.9
20260510200521 70 329 1.0 3.0 0.00 0.00 0.00 46 1017.8
20260510195521 70 329 0.0 2.0 0.00 0.00 0.00 49 1017.7
20260510194521 70 332 2.0 5.0 0.00 0.00 0.00 45 1017.8
20260510193521 72 339 2.0 8.0 0.00 0.00 0.00 47 1017.8
20260510192520 73 306 2.0 6.0 0.00 0.00 0.00 43 1017.8
20260510191520 73 292 2.0 5.0 0.00 0.00 0.00 49 1017.8
20260510190535 73 317 1.0 4.0 0.00 0.00 0.00 46 1017.7
20260510185521 74 316 0.0 7.0 0.00 0.00 0.00 44 1017.6
20260510184520 74 319 1.0 4.0 0.00 0.00 0.00 46 1017.7
20260510183520 74 318 0.0 3.0 0.00 0.00 0.00 45 1017.6
20260510182520 74 314 1.0 6.0 0.00 0.00 0.00 44 1017.6
20260510181520 73 309 1.0 5.0 0.00 0.00 0.00 48 1017.6
20260510180515 72 341 2.0 8.0 0.00 0.00 0.00 48 1017.5
20260510175515 73 349 2.0 7.0 0.00 0.00 0.00 48 1017.6
20260510174520 73 324 1.0 6.0 0.00 0.00 0.00 49 1017.6
20260510173520 72 325 1.0 6.0 0.00 0.00 0.00 50 1017.7
20260510172520 72 329 2.0 7.0 0.00 0.00 0.00 50 1017.7
20260510171539 72 316 2.0 7.0 0.00 0.00 0.00 47 1017.8
20260510170520 72 334 2.0 6.0 0.00 0.00 0.00 53 1017.8
20260510165516 72 335 2.0 7.0 0.00 0.00 0.00 52 1017.9
20260510164601 71 334 2.0 5.0 0.00 0.00 0.00 56 1018.0
20260510163521 71 317 1.0 5.0 0.00 0.00 0.00 52 1018.0
20260510162520 70 323 1.0 6.0 0.00 0.00 0.00 57 1018.1
20260510161520 70 319 2.0 5.0 0.00 0.00 0.00 57 1018.2
20260510160520 69 262 1.0 4.0 0.00 0.00 0.00 59 1018.2
20260510155540 66 260 0.0 3.0 0.00 0.00 0.00 64 1017.9
20260510154515 67 259 0.0 3.0 0.00 0.00 0.00 64 1017.6
20260510153601 67 259 0.0 3.0 0.00 0.00 0.00 63 1017.5
20260510152520 66 257 0.0 2.0 0.00 0.00 0.00 68 1017.5
20260510151520 65 333 0.0 2.0 0.00 0.00 0.00 69 1017.4
20260510150540 65 333 0.0 2.0 0.00 0.00 0.00 68 1017.2
20260510145520 65 333 0.0 4.0 0.00 0.00 0.00 69 1017.0
20260510144543 64 333 0.0 5.0 0.00 0.00 0.00 69 1016.9
20260510143520 64 333 0.0 3.0 0.00 0.00 0.00 69 1016.6
20260510142542 63 333 0.0 3.0 0.00 0.00 0.00 70 1016.5
20260510141522 63 74 0.0 5.0 0.00 0.00 0.00 71 1016.1
20260510140520 63 348 1.0 4.0 0.00 0.00 0.00 71 1016.3
20260510135520 63 330 0.0 4.0 0.00 0.00 0.00 73 1016.3
20260510134520 64 329 0.0 3.0 0.00 0.00 0.00 73 1016.2
20260510133522 63 344 1.0 7.0 0.00 0.00 0.00 74 1016.1
20260510132522 63 336 2.0 6.0 0.00 0.00 0.00 75 1016.2
20260510131522 63 335 2.0 8.0 0.00 0.00 0.00 76 1016.2
20260510130520 63 322 0.0 5.0 0.00 0.00 0.00 78 1016.2
20260510125523 63 328 0.0 4.0 0.00 0.00 0.00 82 1016.2
20260510124517 62 278 0.0 3.0 0.00 0.00 0.00 85 1015.9
20260510123522 61 277 0.0 2.0 0.00 0.00 0.00 86 1015.6
20260510122522 61 0.0 0.0 0.00 0.00 0.00 87 1015.5
20260510121523 61 0.0 1.0 0.00 0.00 0.00 88 1015.4
20260510120522 60 0.0 1.0 0.00 0.00 0.00 88 1015.2
20260510115522 60 0.0 1.0 0.00 0.00 0.00 88 1015.1
20260510114517 60 277 0.0 1.0 0.00 0.00 0.00 88 1014.9
20260510113517 59 277 0.0 2.0 0.00 0.00 0.00 88 1014.7
20260510112522 59 0.0 0.0 0.00 0.00 0.00 89 1014.7
20260510111522 58 0.0 0.0 0.00 0.00 0.00 89 1014.4
20260510110543 58 0.0 0.0 0.00 0.00 0.00 88 1014.2
20260510105542 59 0.0 0.0 0.00 0.00 0.00 88 1013.9
20260510104523 59 0.0 0.0 0.00 0.00 0.00 87 1013.8
20260510103517 59 0.0 1.0 0.00 0.00 0.00 86 1013.7
20260510102520 60 278 0.0 2.0 0.00 0.00 0.00 86 1013.6
20260510101522 60 0.0 0.0 0.00 0.00 0.00 86 1013.4
20260510100522 60 0.0 0.0 0.00 0.00 0.00 86 1013.3
20260510095523 60 0.0 0.0 0.00 0.00 0.00 87 1013.3
20260510094522 59 0.0 0.0 0.00 0.00 0.00 88 1013.2
20260510093522 59 0.0 0.0 0.00 0.00 0.00 87 1013.0
20260510092517 60 0.0 0.0 0.00 0.00 0.00 86 1012.7
20260510091522 60 0.0 0.0 0.00 0.00 0.00 85 1012.5
20260510090522 61 0.0 0.0 0.00 0.00 0.00 84 1012.3
20260510085522 61 0.0 0.0 0.00 0.00 0.00 84 1012.3
20260510084522 62 0.0 0.0 0.00 0.00 0.00 84 1012.3
20260510083522 62 0.0 0.0 0.00 0.00 0.00 83 1012.1
20260510082517 62 0.0 1.0 0.00 0.00 0.00 83 1012.1
20260510081537 62 0.0 0.0 0.00 0.00 0.00 80 1012.1
20260510080522 62 0.0 0.0 0.00 0.00 0.00 81 1012.3
20260510075522 62 0.0 0.0 0.00 0.01 0.00 81 1012.6
20260510074522 63 0.0 0.0 0.00 0.01 0.00 79 1012.8
20260510073542 63 278 0.0 1.0 0.00 0.01 0.00 78 1012.7
20260510072522 63 278 0.0 3.0 0.00 0.01 0.00 77 1012.8
20260510071537 63 278 0.0 6.0 0.00 0.04 0.00 76 1012.6
20260510070522 64 295 0.0 4.0 0.00 0.06 0.00 74 1012.7
20260510065522 64 294 1.0 5.0 0.00 0.07 0.00 74 1013.0
20260510064522 64 294 1.0 2.0 0.00 0.13 0.00 74 1012.9
20260510063522 65 294 0.0 4.0 0.00 0.17 0.00 72 1012.7
20260510062522 64 286 1.0 6.0 0.00 0.20 0.00 72 1012.6
20260510061522 63 282 3.0 7.0 0.00 0.27 0.00 71 1012.6
20260510060517 62 313 1.0 7.0 0.00 0.30 0.00 73 1012.1
20260510055522 63 183 1.0 4.0 0.00 0.30 0.00 71 1011.6
20260510054542 63 180 0.0 3.0 0.00 0.30 0.00 70 1011.1
20260510053522 63 182 0.0 2.0 0.00 0.30 0.00 70 1010.9
20260510052522 63 182 0.0 2.0 0.00 0.30 0.00 70 1010.8
20260510051522 64 182 0.0 1.0 0.00 0.30 0.00 69 1010.7
20260510050517 64 182 0.0 2.0 0.00 0.30 0.00 69 1010.7
20260510045520 64 0.0 2.0 0.00 0.30 0.30 70 1010.8
20260510044521 64 182 0.0 2.0 0.00 0.30 0.30 70 1010.8
20260510043521 64 0.0 0.0 0.00 0.30 0.30 69 1010.7
20260510042536 65 182 0.0 2.0 0.00 0.30 0.30 69 1010.7
20260510041541 65 0.0 2.0 0.00 0.30 0.30 68 1010.7
20260510040520 66 182 0.0 2.0 0.00 0.30 0.30 66 1010.6
20260510035520 66 200 0.0 3.0 0.00 0.30 0.30 66 1010.6
20260510034521 67 209 0.0 2.0 0.00 0.30 0.30 65 1010.5
20260510033521 67 209 0.0 2.0 0.00 0.30 0.30 65 1010.5
20260510032516 67 209 0.0 2.0 0.00 0.30 0.30 65 1010.4
20260510031536 68 209 0.0 2.0 0.00 0.30 0.30 63 1010.3
20260510030520 68 209 0.0 2.0 0.00 0.30 0.30 65 1010.2
20260510025520 68 209 0.0 2.0 0.00 0.30 0.30 66 1010.1
20260510024521 68 0.0 1.0 0.00 0.30 0.30 65 1010.1
20260510023520 69 209 0.0 2.0 0.00 0.30 0.30 64 1010.0
20260510022521 69 209 0.0 2.0 0.00 0.30 0.30 64 1009.9
20260510021515 69 209 0.0 2.0 0.00 0.30 0.30 66 1009.8
20260510020521 69 209 0.0 2.0 0.00 0.30 0.30 68 1009.7
20260510015541 69 209 0.0 2.0 0.00 0.30 0.30 69 1009.5
20260510014521 69 0.0 0.0 0.00 0.30 0.30 70 1009.4
20260510013541 70 0.0 0.0 0.00 0.30 0.30 69 1009.2
20260510012521 70 0.0 0.0 0.00 0.30 0.30 71 1009.2
20260510011521 70 0.0 0.0 0.00 0.30 0.30 70 1009.0
20260510010515 71 0.0 0.0 0.00 0.30 0.30 69 1009.0
20260510005520 72 0.0 0.0 0.00 0.30 0.30 68 1008.9
20260510004520 72 0.0 0.0 0.00 0.30 0.30 68 1008.8
20260510003521 73 209 0.0 2.0 0.00 0.30 0.30 64 1008.7
20260510002601 74 209 0.0 2.0 0.00 0.30 0.30 62 1008.5
20260510001541 75 209 0.0 3.0 0.00 0.30 0.30 61 1008.5
20260510000516 75 209 0.0 6.0 0.00 0.30 0.30 60 1008.4
20260509235520 76 176 0.0 4.0 0.00 0.30 0.30 57 1008.4
20260509234541 77 176 0.0 6.0 0.00 0.30 0.30 57 1008.3
20260509233521 77 183 3.0 8.0 0.00 0.30 0.30 54 1008.4
20260509232541 78 179 2.0 4.0 0.00 0.30 0.30 54 1008.4
20260509231520 78 193 1.0 6.0 0.00 0.30 0.30 56 1008.4